Regional Weather Roundup
Issued by NWS

Home | Current Version | Previous Version | Graphics & Text | Print | Product List | Glossary On
Versions: 1 2 3 4 5 6 7 8 9 10 11 12 13 14 15 16 17 18 19 20 21 22 23 24 25 26 27 28 29 30 31 32 33 34 35 36 37 38 39 40 41 42 43 44 45 46 47 48 49 50
400
ASUS43 KBIS 241210
RWRND

NORTH DAKOTA REGIONAL WEATHER ROUNDUP
NATIONAL WEATHER SERVICE BISMARCK ND
700 AM CDT SUN SEP 24 2017

NOTE: "FAIR" INDICATES FEW OR NO CLOUDS BELOW 12,000 FEET WITH NO
SIGNIFICANT WEATHER AND/OR OBSTRUCTIONS TO VISIBILITY.


NDZ001>003-009>011-017-241300-
NORTHWEST NORTH DAKOTA

CITY           SKY/WX    TMP DP  RH WIND       PRES   REMARKS
WILLISTON      LGT RAIN  44  42  93 N10       30.10F
6HR MIN TEMP:  44; 6HR MAX TEMP:  46; 6HR PCP:  0.10;

MINOT          RAIN      47  46  97 N13       30.03F
MINOT AFB      RAIN      46  46  97 N12       30.04S
$$

NDZ018>021-031>035-040>046-241300-
SOUTHWEST NORTH DAKOTA

CITY           SKY/WX    TMP DP  RH WIND       PRES   REMARKS
BISMARCK       LGT RAIN  49  48  97 N9        29.97F
6HR MIN TEMP:  49; 6HR MAX TEMP:  49; 6HR PCP:  0.30;

DICKINSON      LGT RAIN  43  42  97 N13       30.02F FOG
GARRISON         N/A     45  45 100 N12       30.01F
6HR MIN TEMP:  45; 6HR MAX TEMP:  46; 6HR PCP:  0.14;

HETTINGER ARPT LGT RAIN  44  42  93 N13       30.02F
$$

NDZ004>008-012>016-024-026-027-054-241300-
NORTHEAST NORTH DAKOTA

CITY           SKY/WX    TMP DP  RH WIND       PRES   REMARKS
GRAND FORKS    RAIN      52  52 100 N16       29.90S
GRND FRKS AFB  RAIN      50  50 100 N14       29.93S
DEVILS LAKE    LGT RAIN  47  46  97 N14       29.98R
$$

NDZ022-023-025-028>030-036>039-047>053-241300-
SOUTHEAST NORTH DAKOTA

CITY           SKY/WX    TMP DP  RH WIND       PRES   REMARKS
FARGO          CLOUDY    56  56 100 NW8       29.86S
6HR MIN TEMP:  56; 6HR MAX TEMP:  57; 6HR PCP:  0.51;

JAMESTOWN      RAIN      49  48  97 N13       29.90F
$$





USA.gov is the U.S. government's official web portal to all federal, state and local government web resources and services.